Home > Weather > Opfikon > Past weeks

Flag for Switzerland Past Weather in Opfikon, Zurich, Switzerland — Yesterday and Last 2 Weeks

Now
60 °F

Cool.


Feels Like: 60 °F
Forecast: 56 / 67 °F
Wind: 2 mph from Southwest

Location: Zuerich-Fluntern

Current Time: May 28, 2016 at 8:10:35 AM

Latest Report: May 28, 2016 at 7:00 AM


Visibility: N/A

Pressure: 29.96 "Hg

Humidity: 95%

Dew Point: 58 °F

Location of OpfikonLocation

Past Weather in Opfikon — Graph

°F

Opfikon Temperature Yesterday

Maximum temperature yesterday: 79 °F (at 6:00 PM)
Minimum temperature yesterday: 58 °F (at 3:00 AM)
Average temperature yesterday: 67 °F

High & Low Weather Summary for the Past Weeks

 TemperatureHumidityPressure
High79 °F (May 27, 6:00 PM)97% (May 13, 12:00 PM)30.23 "Hg (May 13, 12:00 PM)
Low42 °F (May 23, 10:00 AM)28% (May 21, 4:00 PM)29.54 "Hg (May 13, 7:00 AM)
Average54 °F75%29.97 "Hg
* Reported May 13 6:00 AM — May 28 6:00 AM, Opfikon, Weather by CustomWeather, © 2016

Note: Actual official high and low records may vary slightly from our data, if they occured in-between our weather recording intervals... More about our weather records

Advertising

Opfikon Weather History for the Previous 24 Hours

Scroll right to see more
 ConditionsComfort  
Time TempWeatherWind HumidityBarometerVisibility
6:00 AM
Sat, May 28
59 °FCool.6 mph95%29.97 "HgN/A
5:00 AM60 °FCool.1 mph95%29.99 "HgN/A
4:00 AM60 °FCool.5 mph94%30.00 "HgN/A
3:00 AM61 °FCool.2 mph90%29.95 "HgN/A
2:00 AM62 °FCool.2 mph89%29.92 "HgN/A
1:00 AM62 °FCool.1 mph87%29.93 "HgN/A
12:00 AM62 °FMild.2 mph82%29.92 "HgN/A
11:00 PM
Fri, May 27
63 °FMild.2 mph86%29.94 "HgN/A
10:00 PM63 °FMild.1 mph77%29.93 "HgN/A
9:00 PM66 °FMild.1 mph61%29.90 "HgN/A
8:00 PM65 °FPartly sunny.12 mph73%29.91 "HgN/A
7:00 PM76 °FMild.1 mph50%29.84 "HgN/A
6:00 PM79 °FWarm.2 mph40%29.84 "HgN/A
5:00 PM78 °FWarm.3 mph41%29.85 "HgN/A
4:00 PM77 °FWarm.2 mph43%29.86 "HgN/A
3:00 PM78 °FWarm.2 mph48%29.87 "HgN/A
2:00 PM76 °FPartly sunny.3 mph47%29.89 "HgN/A
1:00 PM73 °FMild.3 mph55%29.90 "HgN/A
12:00 PM72 °FMild.3 mph51%29.92 "HgN/A
11:00 AM70 °FMild.3 mph57%29.94 "HgN/A
10:00 AM67 °FMild.5 mph61%29.96 "HgN/A
9:00 AM64 °FMild.3 mph70%29.97 "HgN/A
8:00 AM61 °FPartly sunny.1 mph80%29.96 "HgN/A
Weather by CustomWeather, © 2016

See weather overviewHow to use our weather pages